Regional Weather Roundup
Issued by NWS

Home | Current Version | Previous Version | Text Only | Print | Product List | Glossary On
Versions: 1 2 3 4 5 6 7 8 9 10 11 12 13 14 15 16 17 18 19 20 21 22 23 24 25 26 27 28 29 30 31 32 33 34 35 36 37 38 39 40 41 42 43 44 45 46 47 48 49 50
000
ASUS43 KIND 170559
RWRIN

WEATHER ROUNDUP FOR INDIANA
NATIONAL WEATHER SERVICE INDIANAPOLIS IN
100 AM EST WED JAN 17 2018

NOTE: "FAIR" INDICATES FEW OR NO CLOUDS BELOW 12,000 FEET WITH NO
SIGNIFICANT WEATHER AND/OR OBSTRUCTIONS TO VISIBILITY.

* - STATION DOES NOT REPORT WEATHER SUCH AS PRECIPITATION OR FOG.

+ - STATION NOT QUALITY CONTROLLED BY THE NATIONAL WEATHER SERVICE.
    USE DATA WITH CAUTION...ESPECIALLY DEWPOINT AND RELATIVE
    HUMIDITY OBSERVATIONS.

INZ001>003-010>013-019-020-170700-
NORTHWEST INDIANA

CITY           SKY/WX    TMP DP  RH WIND       PRES   REMARKS
KNOX *+        CLOUDY    12   9  85 W8        30.49S WCI   1
MONTICELLO +   CLOUDY     9   6  84 W7        30.52F WCI  -2
6HR MIN TEMP:   6; 6HR MAX TEMP:  10;


$$

LMZ046-743>745-170700-
SOUTHERN LAKE MICHIGAN

STATION/POSITION TIME  TEMP    WIND        PRES    WAVE
                       AIR SEA DIR/SP/G            HT
                 (UTC) (F)     (DEG/KT/KT) (MB)    (FT)
BURNS HARBOR     0540   23     320/ 15/ 20 1032.8S
MICHIGAN CITY    0530   22      80/  4/  5   N/A

$$

INZ004-005-014>016-021>024-170700-
NORTH CENTRAL INDIANA

CITY           SKY/WX    TMP DP  RH WIND       PRES   REMARKS
GOSHEN         FAIR       2  -1  88 CALM      30.47F
6HR MIN TEMP:   2; 6HR MAX TEMP:   5;

PERU/GRISSOM   CLOUDY     5   3  92 SW8       30.49F WCI  -9
6HR MIN TEMP:   5; 6HR MAX TEMP:  10; 6HR PCP: TRACE;

SOUTH BEND     CLOUDY    11   9  92 SW5       30.47F WCI   3
6HR MIN TEMP:   7; 6HR MAX TEMP:  11; 6HR PCP: TRACE;


$$

INZ006>009-017-018-025>027-170700-
NORTHEAST INDIANA

CITY           SKY/WX    TMP DP  RH WIND       PRES   REMARKS
FORT WAYNE     FAIR       3   0  87 S7        30.50F WCI  -9
6HR MIN TEMP:   3; 6HR MAX TEMP:  10; 6HR PCP: TRACE;

KENDALLVILLE + FAIR       3   1  90 SW3       30.46F

$$

INZ028-029-035-036-043>045-051>053-170700-
WEST CENTRAL INDIANA

CITY           SKY/WX    TMP DP  RH WIND       PRES   REMARKS
GREENCASTLE +  LGT SNOW   9   3  78 CALM      30.56S
LAFAYETTE      FAIR       4   2  91 W8        30.54F WCI  -9
6HR MIN TEMP:   4; 6HR MAX TEMP:   8;

TERRE HAUTE    CLOUDY     8   2  76 W7        30.61F WCI  -3
6HR MIN TEMP:   6; 6HR MAX TEMP:   8; 6HR PCP: TRACE;


$$

INZ030>032-037>040-046>048-054>057-064-065-170700-
CENTRAL INDIANA

CITY           SKY/WX    TMP DP  RH WIND       PRES   REMARKS
GREENWOOD *+   CLOUDY     8   2  78 W6        30.56F WCI  -2
INDIANAPOLIS   FLURRIES   6   2  83 SW8       30.55F WCI  -7
6HR MIN TEMP:   6; 6HR MAX TEMP:   7; 6HR PCP: TRACE;

-EAGLE CREEK   CLOUDY     7   3  84 SW3       30.54F
6HR MIN TEMP:   6; 6HR MAX TEMP:   8; 6HR PCP: TRACE;

MT COMFORT *+  CLOUDY     7   5  92 SW6       30.53F WCI  -3
SHELBYVILLE    CLOUDY     7   0  73 SW8       30.54F WCI  -6
6HR MIN TEMP:   6; 6HR MAX TEMP:   7; 6HR PCP: TRACE;


$$

INZ033-034-041-042-049-050-058-059-170700-
EAST CENTRAL INDIANA

CITY           SKY/WX    TMP DP  RH WIND       PRES   REMARKS
MUNCIE         LGT SNOW   9   3  77 SW8       30.51F WCI  -3
6HR MIN TEMP:   7; 6HR MAX TEMP:   9; 6HR PCP: TRACE;

RICHMOND +     LGT SNOW   5   3  92 W6        30.50F WCI  -6

$$

INZ060-061-067>069-081>083-085>088-170700-
SOUTHWEST INDIANA

CITY           SKY/WX    TMP DP  RH WIND       PRES   REMARKS
EVANSVILLE     CLOUDY     9   4  80 W6        30.65F WCI  -1
6HR MIN TEMP:   6; 6HR MAX TEMP:   9; 6HR PCP: TRACE;

HUNTINGBURG +  FLURRIES   0  -4  83 CALM      30.63F
6HR MIN TEMP:   0; 6HR MAX TEMP:   6; 6HR PCP: TRACE;


$$

INZ062-063-066-070>080-084-089>092-170700-
SOUTH CENTRAL AND SOUTHEAST INDIANA

CITY           SKY/WX    TMP DP  RH WIND       PRES   REMARKS
BLOOMINGTON    CLOUDY     6   1  80 W6        30.56F WCI  -4
6HR MIN TEMP:   4; 6HR MAX TEMP:   6; 6HR PCP: TRACE;

FRENCH LICK *+ CLOUDY     5   1  85 CALM      30.59S
SEYMOUR +      FLURRIES   9   1  72 W5        30.59F WCI   0

$$





USA.gov is the U.S. government's official web portal to all federal, state and local government web resources and services.